{"data":{"norad_id":63293,"epoch":"2026-05-25T03:43:26.402016Z","epoch_age_seconds":68420,"freshness":"FRESH","line1":"1 63293U 25055C   26145.15516669  .00005653  00000+0  34623-3 0  9996","line2":"2 63293  97.6481 285.9036 0042384 217.5607 142.2660 15.09842862 65593","mean_motion":15.09842862,"eccentricity":0.0042384,"inclination_deg":97.6481,"raan_deg":285.9036,"arg_perigee_deg":217.5607,"mean_anomaly_deg":142.266,"bstar":0.00034623,"rev_number":6559,"period_min":95.374163513448,"perigee_km":507.37197860598,"apogee_km":565.98749712953,"semimajor_km":6914.8167378678,"source":"CELESTRAK","updated_at":"2026-05-25T13:38:03.619936Z"}}